Location: Gunnison Valley Observatory
(38.5087°N, 106.9386°W)
Time: 06:18:24
(UTC-07:00)

Amateur Radio Satellites - All Passes

Search period start: 23 November 2017 05:48
Search period end: 24 November 2017 05:48
Location: Gunnison Valley Observatory, 38.5087°N, 106.9386°W

Satellite Date Start Highest point End Downlink Frequencies (MHz)
Time Altitude Azimuth
AO-7 23 Nov 05:49:51 05:55:39 21° 307° (NW) 06:01:28 .
CUTE-I 23 Nov 05:52:17 05:57:09 34° 97° (E) 06:01:58 437.470
XW-2C 23 Nov 05:58:25 06:02:09 51° 100° (E) 06:05:52 145.795 - 145.815
LilacSat-2 23 Nov 06:03:11 06:07:01 65° 101° (E) 06:10:50 437.200
KKS-1 23 Nov 06:04:11 06:05:09 11° 269° (W) 06:06:08 437.445
XW-2F 23 Nov 06:06:57 06:10:43 61° 100° (E) 06:14:30 145.980 - 146.000
STARS 23 Nov 06:19:42 06:22:40 17° 266° (W) 06:25:38 437.465
STRAND 1 23 Nov 06:29:57 06:34:59 58° 73° (ENE) 06:40:03 437.568
KAITUO 1B 23 Nov 06:30:52 06:34:39 84° 286° (WNW) 06:38:26 145.475/437.950
YUBILEINY 23 Nov 06:34:59 06:43:04 41° 286° (WNW) 06:51:17 435.215
CUBEBUG 2 23 Nov 06:36:56 06:39:41 17° 93° (E) 06:42:25 437.445
XW-2D 23 Nov 06:52:07 06:55:28 30° 288° (WNW) 06:58:50 145.860 - 145.880
CUTE 1.7 + AOD 2 23 Nov 06:52:07 06:56:17 48° 100° (E) 07:00:25 437.475
XW-2B 23 Nov 07:07:23 07:10:19 21° 290° (WNW) 07:13:15 145.730 - 145.750
SO-50 23 Nov 07:08:57 07:12:57 29° 247° (WSW) 07:16:59 436.795
NUDT-PHONESAT 23 Nov 07:12:01 07:15:07 25° 289° (WNW) 07:18:13 437.300
FO-29 23 Nov 07:13:41 07:19:56 43° 67° (ENE) 07:26:52 435.910
ZACube-1 23 Nov 07:14:41 07:16:35 13° 92° (E) 07:18:29 437.345
HO-68 23 Nov 07:17:50 07:25:04 77° 104° (ESE) 07:32:13 435.675
SEEDS 23 Nov 07:18:02 07:22:14 58° 100° (E) 07:26:25 437.485
AAUSAT CUBESAT 2 23 Nov 07:18:20 07:21:43 23° 95° (E) 07:25:05 437.432
UWE-3 23 Nov 07:28:00 07:31:51 36° 98° (E) 07:35:42 435.000/436.395/437.385
CUTE-I 23 Nov 07:32:30 07:37:02 28° 293° (WNW) 07:41:32 437.470
XW-2C 23 Nov 07:34:58 07:35:51 11° 295° (WNW) 07:36:43 145.795 - 145.815
PCSat 23 Nov 07:41:44 07:45:24 18° 47° (NE) 07:49:02 145.827
FALCONSAT 3 23 Nov 07:55:32 07:57:54 16° 154° (SSE) 08:00:15 435.103
XW-2A 23 Nov 07:57:23 08:00:46 88° 106° (ESE) 08:04:09 145.665 - 145.685
AO-73 23 Nov 08:02:31 08:06:27 41° 99° (E) 08:10:25 145.935
STRAND 1 23 Nov 08:11:31 08:14:30 15° 268° (W) 08:17:29 437.568
CUBEBUG 2 23 Nov 08:12:39 08:16:23 33° 289° (WNW) 08:20:06 437.445
UNISAT 6 23 Nov 08:16:07 08:19:37 22° 68° (ENE) 08:23:04 437.425
Oscar 11 23 Nov 08:16:16 08:20:22 40° 98° (E) 08:24:26 .
TIGRISAT 23 Nov 08:19:48 08:23:18 22° 68° (ENE) 08:26:45 435.000
CUTE 1.7 + AOD 2 23 Nov 08:29:25 08:31:40 14° 294° (WNW) 08:33:54 437.475
PRISM 23 Nov 08:34:25 08:35:20 11° 63° (ENE) 08:36:15 437.425
ZACube-1 23 Nov 08:49:07 08:53:05 45° 287° (WNW) 08:57:05 437.345
AAUSAT CUBESAT 2 23 Nov 08:53:36 08:57:05 26° 290° (WNW) 09:00:31 437.432
SEEDS 23 Nov 08:55:49 08:57:23 12° 296° (WNW) 08:58:57 437.485
FO-29 23 Nov 08:59:03 09:05:00 35° 266° (W) 09:11:37 435.910
DELFI C3 23 Nov 09:01:48 09:05:06 24° 95° (E) 09:08:22 145.870
UWE-3 23 Nov 09:05:24 09:08:00 16° 293° (WNW) 09:10:37 435.000/436.395/437.385
HO-68 23 Nov 09:07:03 09:12:00 21° 302° (WNW) 09:16:57 435.675
PCSat 23 Nov 09:23:55 09:29:20 71° 245° (WSW) 09:34:42 145.827
EO-88 23 Nov 09:30:07 09:33:08 24° 96° (E) 09:36:07 145.990 - 145.960
FALCONSAT 3 23 Nov 09:33:01 09:36:30 41° 169° (SSE) 09:40:00 435.103
Max Valier Satellite 23 Nov 09:37:02 09:40:33 44° 99° (E) 09:44:05 145.860
AO-73 23 Nov 09:39:58 09:42:20 15° 294° (WNW) 09:44:43 145.935
UNISAT 6 23 Nov 09:52:02 09:56:07 32° 263° (W) 10:00:09 437.425
Oscar 11 23 Nov 09:53:22 09:56:10 17° 293° (WNW) 09:58:57 .
TIGRISAT 23 Nov 09:55:41 09:59:47 32° 263° (W) 10:03:49 435.000
PRISM 23 Nov 10:05:57 10:10:01 62° 258° (WSW) 10:14:09 437.425
BEESAT 3 23 Nov 10:24:57 10:28:25 29° 52° (NE) 10:31:49 437.485
DUCHIFAT 1 23 Nov 10:35:29 10:38:35 20° 68° (ENE) 10:41:40 145.980
DELFI C3 23 Nov 10:36:34 10:39:42 22° 291° (WNW) 10:42:50 145.870
EO-79 23 Nov 10:45:07 10:48:56 34° 71° (ENE) 10:52:46 145.935-145.965
NANOSAT C BR1 23 Nov 10:46:46 10:50:30 31° 71° (ENE) 10:54:13 145.865
AIST 2D 23 Nov 10:50:32 10:53:56 58° 259° (W) 10:57:22 435.315
POLYITAN 1 23 Nov 11:00:49 11:04:55 51° 74° (ENE) 11:09:02 437.675
EO-88 23 Nov 11:03:58 11:06:36 19° 291° (WNW) 11:09:14 145.990 - 145.960
FALCONSAT 3 23 Nov 11:11:47 11:15:23 51° 184° (S) 11:18:59 435.103
Max Valier Satellite 23 Nov 11:12:53 11:13:57 11° 294° (WNW) 11:15:01 145.860
BUGSAT 1 23 Nov 11:18:54 11:21:17 15° 66° (ENE) 11:23:39 437.445
LO-87 23 Nov 11:19:27 11:23:00 74° 101° (ESE) 11:26:30 145.935 - 145.965
QB50P2 23 Nov 11:24:12 11:28:26 74° 257° (WSW) 11:32:41 145.880/145.840
ESTCUBE 1 23 Nov 11:26:35 11:31:04 58° 101° (E) 11:35:32 437.505/2401.250
VELOX 1 23 Nov 11:39:10 11:39:48 10° 90° (E) 11:40:25 145.980
BEESAT 2 23 Nov 11:42:06 11:46:04 55° 56° (ENE) 11:49:58 435.950
Oscar 19 23 Nov 11:45:16 11:48:51 20° 64° (ENE) 11:52:28 437.125/150
BEESAT 3 23 Nov 12:02:44 12:05:46 22° 248° (WSW) 12:08:45 437.485
DUCHIFAT 1 23 Nov 12:10:17 12:14:01 31° 263° (W) 12:17:46 145.980
SPROUT 23 Nov 12:13:54 12:17:58 44° 99° (E) 12:22:00 437.525
AO-91 23 Nov 12:17:38 12:22:35 39° 71° (ENE) 12:27:32 145.960
EO-79 23 Nov 12:21:48 12:24:44 18° 266° (W) 12:27:42 145.935-145.965
NANOSAT C BR1 23 Nov 12:23:06 12:26:13 20° 266° (W) 12:29:19 145.865
AO-85 23 Nov 12:24:12 12:28:54 63° 57° (ENE) 12:33:57 145.980
Gurwin Techsat 1B 23 Nov 12:29:22 12:34:12 37° 69° (ENE) 12:39:04 435.225
POLYITAN 1 23 Nov 12:39:20 12:40:58 12° 269° (W) 12:42:35 437.675
FALCONSAT 3 23 Nov 12:50:58 12:54:09 27° 199° (SSW) 12:57:21 435.103
BUGSAT 1 23 Nov 12:52:16 12:56:15 43° 261° (W) 13:00:14 437.445
O/OREOS (USA 219) 23 Nov 13:00:49 13:05:26 82° 291° (WNW) 13:10:03 437.305
AO-7 23 Nov 13:03:05 13:09:03 23° 54° (NE) 13:15:03 .
ESTCUBE 1 23 Nov 13:05:10 13:07:21 13° 296° (WNW) 13:09:32 437.505/2401.250
VELOX 1 23 Nov 13:12:13 13:16:38 65° 286° (WNW) 13:21:01 145.980
BEESAT 2 23 Nov 13:21:58 13:23:15 11° 252° (WSW) 13:24:33 435.950
Oscar 19 23 Nov 13:22:52 13:27:47 48° 260° (W) 13:32:44 437.125/150
NO-84 23 Nov 13:33:51 13:37:01 34° 128° (SE) 13:40:28 435.350 FM
ITAMSAT 1 23 Nov 13:43:59 13:47:02 16° 62° (ENE) 13:50:06 435.822/435.867
M-CUBED/EXP-1 PRIME 23 Nov 13:45:51 13:49:23 66° 71° (ENE) 13:53:15 437.505
DX 1 23 Nov 13:49:20 13:53:43 69° 101° (E) 13:58:03 434.975-435.025
SPROUT 23 Nov 13:51:02 13:53:27 15° 294° (WNW) 13:55:52 437.525
50 SAT 23 Nov 13:54:22 13:57:35 72° 283° (WNW) 14:00:46 437.505
AO-91 23 Nov 13:54:33 13:59:00 27° 266° (W) 14:03:31 145.960
AO-85 23 Nov 14:06:07 14:08:56 15° 251° (WSW) 14:11:50 145.980
Gurwin Techsat 1B 23 Nov 14:09:50 14:14:11 26° 265° (W) 14:18:34 435.225
UKube-1 23 Nov 14:25:50 14:30:10 75° 284° (WNW) 14:34:27 .
MOZHAYETS 4 23 Nov 14:44:07 14:48:08 30° 96° (E) 14:52:08
BEESAT 23 Nov 14:45:39 14:49:24 23° 95° (E) 14:53:08 436.000
YUBILEINY 23 Nov 14:51:07 14:56:55 19° 64° (ENE) 15:02:39 435.215
AO-7 23 Nov 14:52:36 15:00:53 81° 253° (WSW) 15:09:15 .
DOVE 4 23 Nov 14:56:24 14:58:31 13° 61° (ENE) 15:00:40 437.250
ITUPSAT 1 23 Nov 14:56:53 15:01:01 29° 97° (E) 15:05:08 437.325
CUBESAT XI-V 23 Nov 15:05:11 15:06:20 11° 90° (E) 15:07:29 437.345
NO-84 23 Nov 15:11:12 15:14:23 27° 327° (NNW) 15:17:48 435.350 FM
ITAMSAT 1 23 Nov 15:20:45 15:25:55 64° 258° (WSW) 15:31:08 435.822/435.867
JUGNU 23 Nov 15:23:26 15:25:25 12° 180° (S) 15:27:24 437.505
DX 1 23 Nov 15:28:11 15:29:17 11° 298° (WNW) 15:30:23 434.975-435.025
KKS-1 23 Nov 16:17:48 16:20:00 13° 92° (E) 16:22:11 437.445
MOZHAYETS 4 23 Nov 16:21:27 16:25:08 24° 292° (WNW) 16:28:48
BEESAT 23 Nov 16:22:55 16:27:12 34° 290° (WNW) 16:31:26 436.000
DOVE 4 23 Nov 16:30:19 16:35:22 81° 258° (WSW) 16:40:40 437.250
ITUPSAT 1 23 Nov 16:34:45 16:38:43 27° 292° (WNW) 16:42:41 437.325
XW-2C 23 Nov 16:38:48 16:41:32 20° 69° (ENE) 16:44:17 145.795 - 145.815
CUBESAT XI-V 23 Nov 16:39:26 16:44:07 69° 285° (WNW) 16:48:47 437.345
LilacSat-2 23 Nov 16:43:54 16:46:59 24° 71° (ENE) 16:50:04 437.200
YUBILEINY 23 Nov 16:45:59 16:54:53 88° 264° (W) 17:03:43 435.215
XW-2F 23 Nov 16:46:38 16:49:35 22° 70° (ENE) 16:52:31 145.980 - 146.000
AO-7 23 Nov 16:50:53 16:54:45 14° 270° (W) 16:58:39 .
RS-15 23 Nov 16:54:20 17:04:41 34° 104° (ESE) 17:15:03 29.354- 29.394
KAITUO 1B 23 Nov 17:09:13 17:12:31 32° 72° (ENE) 17:15:51 145.475/437.950
CUTE-I 23 Nov 17:12:27 17:17:36 49° 71° (ENE) 17:22:47 437.470
SRMSAT 23 Nov 17:13:35 17:15:03 11° 174° (S) 17:16:30 437.500
XW-2D 23 Nov 17:30:57 17:34:41 82° 258° (WSW) 17:38:26 145.860 - 145.880
CUBEBUG 2 23 Nov 17:34:08 17:36:32 14° 66° (ENE) 17:38:54 437.445
CUTE 1.7 + AOD 2 23 Nov 17:43:26 17:47:00 28° 70° (ENE) 17:50:35 437.475
HO-68 23 Nov 17:44:35 17:51:25 49° 67° (ENE) 17:58:17 435.675
XW-2B 23 Nov 17:46:00 17:49:39 53° 260° (W) 17:53:19 145.730 - 145.750
NUDT-PHONESAT 23 Nov 17:48:30 17:52:07 75° 258° (WSW) 17:55:47 437.300
KKS-1 23 Nov 17:52:30 17:56:49 51° 288° (WNW) 18:01:06 437.445
AAUSAT CUBESAT 2 23 Nov 18:08:07 18:10:10 13° 65° (ENE) 18:12:11 437.432
SEEDS 23 Nov 18:08:11 18:11:52 31° 71° (ENE) 18:15:35 437.485
STARS 23 Nov 18:08:31 18:12:55 87° 284° (WNW) 18:17:17 437.465
XW-2C 23 Nov 18:12:30 18:15:33 24° 264° (W) 18:18:38 145.795 - 145.815
LilacSat-2 23 Nov 18:18:27 18:21:12 19° 266° (W) 18:23:58 437.200
XW-2F 23 Nov 18:20:45 18:23:35 21° 265° (W) 18:26:26 145.980 - 146.000
UWE-3 23 Nov 18:23:31 18:27:12 26° 70° (ENE) 18:30:49 435.000/436.395/437.385
XW-2A 23 Nov 18:27:26 18:29:57 20° 71° (ENE) 18:32:28 145.665 - 145.685
STRAND 1 23 Nov 18:42:39 18:46:34 22° 94° (E) 18:50:26 437.568
KAITUO 1B 23 Nov 18:44:38 18:46:34 14° 267° (W) 18:48:33 145.475/437.950
YUBILEINY 23 Nov 18:45:35 18:50:17 16° 283° (WNW) 18:55:02 435.215
CUTE-I 23 Nov 18:54:04 18:57:52 19° 267° (W) 19:01:41 437.470
AO-73 23 Nov 18:56:38 19:00:14 27° 71° (ENE) 19:03:48 145.935
SRMSAT 23 Nov 19:01:26 19:03:17 11° 184° (S) 19:05:09 437.500
RS-15 23 Nov 19:04:00 19:16:17 70° 305° (NW) 19:28:33 29.354- 29.394
ISS 23 Nov 19:05:32 19:08:24 28° 133° (SE) 19:11:15 437.550
CUBEBUG 2 23 Nov 19:08:14 19:12:43 53° 260° (W) 19:17:04 437.445
Oscar 11 23 Nov 19:09:49 19:13:21 26° 70° (ENE) 19:16:54 .
CUTE 1.7 + AOD 2 23 Nov 19:19:32 19:22:47 22° 266° (W) 19:26:05 437.475
HO-68 23 Nov 19:33:09 19:39:18 30° 264° (W) 19:45:30 435.675
AAUSAT CUBESAT 2 23 Nov 19:41:11 19:45:09 47° 261° (W) 19:49:10 437.432
ZACube-1 23 Nov 19:42:45 19:47:04 75° 260° (W) 19:51:18 437.345
SO-50 23 Nov 19:43:49 19:45:36 12° 108° (ESE) 19:47:24 436.795
SEEDS 23 Nov 19:44:37 19:47:35 19° 267° (W) 19:50:34 437.485
DELFI C3 23 Nov 19:47:04 19:48:40 12° 65° (ENE) 19:50:17 145.870
nSIGHT-1 23 Nov 19:47:52 19:51:05 75° 323° (NW) 19:54:18 .
UWE-3 23 Nov 19:59:54 20:03:34 25° 264° (W) 20:07:10 435.000/436.395/437.385
XW-2A 23 Nov 20:00:16 20:02:33 17° 265° (W) 20:04:51 145.665 - 145.685
NO-84 23 Nov 20:07:35 20:10:47 20° 29° (NNE) 20:14:01 435.350 FM
FO-29 23 Nov 20:09:27 20:16:52 46° 97° (E) 20:23:43 435.910
Max Valier Satellite 23 Nov 20:15:14 20:17:33 16° 68° (ENE) 20:19:52 145.860
STRAND 1 23 Nov 20:21:05 20:25:51 40° 290° (WNW) 20:30:35 437.568
AO-73 23 Nov 20:33:01 20:36:25 23° 265° (W) 20:39:47 145.935
ISS 23 Nov 20:41:53 20:44:49 30° 329° (NNW) 20:47:46 437.550
Oscar 11 23 Nov 20:45:52 20:49:24 25° 265° (W) 20:52:57 .
DELFI C3 23 Nov 21:19:07 21:22:57 48° 261° (W) 21:26:49 145.870
SO-50 23 Nov 21:21:03 21:25:28 63° 303° (WNW) 21:29:57 436.795
RS-15 23 Nov 21:21:49 21:31:32 26° 332° (NNW) 21:41:07 29.354- 29.394
nSIGHT-1 23 Nov 21:25:56 21:27:46 14° 340° (NNW) 21:29:36 .
O/OREOS (USA 219) 23 Nov 21:34:31 21:37:10 15° 56° (NE) 21:39:47 437.305
EO-88 23 Nov 21:38:45 21:42:17 55° 260° (W) 21:45:52 145.990 - 145.960
NO-84 23 Nov 21:44:17 21:48:32 75° 227° (SW) 21:52:46 435.350 FM
UNISAT 6 23 Nov 21:44:29 21:48:41 55° 100° (E) 21:52:51 437.425
Max Valier Satellite 23 Nov 21:47:57 21:51:07 28° 263° (W) 21:54:19 145.860
TIGRISAT 23 Nov 21:47:59 21:52:10 55° 100° (E) 21:56:19 435.000
PRISM 23 Nov 21:49:17 21:52:16 19° 94° (E) 21:55:14 437.425
LO-87 23 Nov 21:54:07 21:56:59 22° 71° (ENE) 21:59:51 145.935 - 145.965
FO-29 23 Nov 21:54:39 22:01:36 37° 295° (WNW) 22:08:10 435.910
AIST 2D 23 Nov 22:18:44 22:19:36 11° 92° (E) 22:20:27 435.315
PCSat 23 Nov 22:22:44 22:26:18 18° 105° (ESE) 22:29:53 145.827
ESTCUBE 1 23 Nov 22:24:28 22:28:42 43° 72° (ENE) 22:32:57 437.505/2401.250
SPROUT 23 Nov 23:05:42 23:09:21 28° 70° (ENE) 23:13:00 437.525
QB50P2 23 Nov 23:11:10 23:14:13 19° 94° (E) 23:17:14 145.880/145.840
O/OREOS (USA 219) 23 Nov 23:12:30 23:16:55 53° 253° (WSW) 23:21:17 437.305
UNISAT 6 23 Nov 23:23:12 23:24:53 12° 296° (WNW) 23:26:33 437.425
PRISM 23 Nov 23:23:52 23:27:34 31° 289° (WNW) 23:31:13 437.425
TIGRISAT 23 Nov 23:26:41 23:28:21 12° 296° (WNW) 23:30:02 435.000
LO-87 23 Nov 23:27:39 23:30:18 19° 265° (W) 23:32:57 145.935 - 145.965
RS-15 23 Nov 23:42:22 23:50:14 19° 9° (N) 23:57:53 29.354- 29.394
AIST 2D 23 Nov 23:49:37 23:52:55 38° 286° (WNW) 23:56:13 435.315
DUCHIFAT 1 23 Nov 23:54:58 23:58:56 42° 99° (E) 00:02:53 145.980
ESTCUBE 1 24 Nov 00:02:56 00:05:41 16° 268° (W) 00:08:25 437.505/2401.250
PCSat 24 Nov 00:03:52 00:09:11 57° 301° (WNW) 00:14:32 145.827
EO-79 24 Nov 00:06:06 00:10:18 78° 103° (ESE) 00:14:29 145.935-145.965
NANOSAT C BR1 24 Nov 00:07:13 00:11:23 70° 101° (E) 00:15:33 145.865
VELOX 1 24 Nov 00:07:23 00:11:49 90° 332° (NNW) 00:16:18 145.980
50 SAT 24 Nov 00:20:03 00:22:37 22° 71° (ENE) 00:25:12 437.505
POLYITAN 1 24 Nov 00:22:21 00:26:31 67° 284° (WNW) 00:30:39 437.675
BUGSAT 1 24 Nov 00:35:29 00:38:54 27° 96° (E) 00:42:18 437.445
nSIGHT-1 24 Nov 00:40:43 00:42:33 14° 20° (NNE) 00:44:21 .
SPROUT 24 Nov 00:41:48 00:45:11 23° 265° (W) 00:48:35 437.525
DX 1 24 Nov 00:43:05 00:47:17 48° 73° (ENE) 00:51:30 434.975-435.025
QB50P2 24 Nov 00:46:18 00:50:01 31° 289° (WNW) 00:53:44 145.880/145.840
Gurwin Techsat 1B 24 Nov 00:48:03 00:51:16 16° 92° (E) 00:54:28 435.225
UKube-1 24 Nov 01:18:17 01:22:35 75° 75° (ENE) 01:26:55 .
DUCHIFAT 1 24 Nov 01:31:50 01:34:13 15° 294° (WNW) 01:36:36 145.980
BEESAT 2 24 Nov 01:33:27 01:35:22 13° 109° (ESE) 01:37:19 435.950
ISS 24 Nov 01:34:28 01:37:16 26° 29° (NNE) 01:40:04 437.550
Oscar 19 24 Nov 01:35:28 01:40:38 67° 102° (ESE) 01:45:46 437.125/150
MOZHAYETS 4 24 Nov 01:44:45 01:48:26 25° 68° (ENE) 01:52:08
AO-91 24 Nov 01:46:04 01:50:31 88° 95° (E) 01:54:27 145.960
BEESAT 3 24 Nov 01:49:19 01:53:18 81° 119° (ESE) 01:57:19 437.485
BEESAT 24 Nov 01:50:42 01:54:27 24° 67° (ENE) 01:58:13 436.000
50 SAT 24 Nov 01:52:42 01:54:39 15° 265° (W) 01:56:36 437.505
RS-15 24 Nov 01:56:31 02:07:31 40° 42° (NE) 02:17:56 29.354- 29.394
ITUPSAT 1 24 Nov 02:02:09 02:06:18 30° 69° (ENE) 02:10:26 437.325
BUGSAT 1 24 Nov 02:11:04 02:14:05 21° 292° (WNW) 02:17:05 437.445
nSIGHT-1 24 Nov 02:16:02 02:19:13 75° 37° (NE) 02:22:23 .
DX 1 24 Nov 02:21:28 02:23:42 14° 268° (W) 02:25:56 434.975-435.025
Gurwin Techsat 1B 24 Nov 02:26:20 02:31:34 58° 287° (WNW) 02:36:46 435.225
AO-85 24 Nov 02:38:32 02:41:39 23° 112° (ESE) 02:44:48 145.980
AO-7 24 Nov 02:56:10 03:03:47 38° 99° (E) 03:11:21 .
M-CUBED/EXP-1 PRIME 24 Nov 02:58:40 03:03:16 66° 106° (ESE) 03:07:53 437.505
BEESAT 2 24 Nov 03:08:46 03:12:39 48° 304° (NW) 03:16:35 435.950
ISS 24 Nov 03:10:47 03:13:47 34° 226° (SW) 03:16:46 437.550
KKS-1 24 Nov 03:15:27 03:16:59 12° 62° (ENE) 03:18:31 437.445
Oscar 19 24 Nov 03:16:32 03:19:21 15° 298° (WNW) 03:22:10 437.125/150
MOZHAYETS 4 24 Nov 03:21:28 03:25:26 29° 264° (W) 03:29:25
BEESAT 24 Nov 03:27:41 03:32:01 34° 262° (W) 03:36:22 436.000
BEESAT 3 24 Nov 03:30:08 03:31:21 11° 317° (NW) 03:32:36 437.485
ITAMSAT 1 24 Nov 03:35:04 03:40:07 50° 100° (E) 03:45:08 435.822/435.867
ITUPSAT 1 24 Nov 03:40:03 03:44:03 26° 264° (W) 03:48:04 437.325
CUBESAT XI-V 24 Nov 03:40:51 03:45:27 84° 257° (WSW) 03:50:05 437.345
YUBILEINY 24 Nov 03:51:19 03:57:28 22° 80° (E) 04:03:36 435.215
RS-15 24 Nov 04:09:08 04:20:41 66° 246° (WSW) 04:31:37 29.354- 29.394
SO-50 24 Nov 04:15:17 04:16:45 11° 40° (NE) 04:18:12 436.795
AO-85 24 Nov 04:18:34 04:21:53 26° 310° (NW) 04:25:21 145.980
DOVE 4 24 Nov 04:31:19 04:35:53 32° 95° (E) 04:40:12 437.250
M-CUBED/EXP-1 PRIME 24 Nov 04:34:42 04:37:05 14° 301° (WNW) 04:39:30 437.505
KKS-1 24 Nov 04:48:29 04:52:56 67° 258° (WSW) 04:57:25 437.445
AO-7 24 Nov 04:48:44 04:56:36 48° 296° (WNW) 05:04:28 .
STARS 24 Nov 05:03:07 05:07:30 68° 75° (ENE) 05:11:55 437.465
XW-2D 24 Nov 05:06:45 05:07:57 11° 91° (E) 05:09:08 145.860 - 145.880
ITAMSAT 1 24 Nov 05:15:32 05:19:10 19° 296° (WNW) 05:22:47 435.822/435.867
XW-2B 24 Nov 05:20:34 05:23:02 16° 94° (E) 05:25:29 145.730 - 145.750
NUDT-PHONESAT 24 Nov 05:22:01 05:22:57 11° 91° (E) 05:23:53 437.300
CUTE-I 24 Nov 05:31:37 05:35:42 22° 94° (E) 05:39:46 437.470
